Weather in Dzerzhinsk

Belarus     53˚41′06″N   27˚07′53″E
temp.,
°C
wind,
m/s
gust,
m/s
humid.,
%
clouds,
%
prec.,
mm/h
press.,
hPa
HPBL,
m
2 december, wed
wed200:00−5˚e23966 0.0 103246
03:00−6˚e349710 0.0 103281
06:00−6˚ene35968 0.0 1031115
09:00−6˚ene36945 0.0 1031133
12:00−4˚ene469424 0.0 1030230
15:00−2˚ene359459 0.1 1028335
18:00−3˚ene369799 0.1 1028176
21:00−4˚ese379897 0.3 1027200
3 december, thu
thu300:00−4˚se269792 0.2 1026228
03:00−4˚se379793 0.4 1026256
06:00−4˚se489792 0.3 1024327
09:00−3˚se589694 0.4 1024334
12:00−2˚se5995100 0.3 1023486
15:00−1˚se5994100 0.5 1022631
18:00−2˚se5119695 0.1 1021494
21:00se6119497 0.1 1021614
4 december, fri
fri400:00+1˚sse61393100 0.0 1020764
03:00+1˚se71393100 0.0 1019753
06:00sse71390100 0.0 1018770
09:00+1˚se71494100 0.0 1018619
12:00+1˚se71594100 0.0 1018585
15:00+2˚se71693100 0.0 1018712
18:00+2˚se71692100 0.0 1018689
21:00+2˚se71689100 0.0 1019675
5 december, sat
sat500:00+1˚se91693100 0.0 1019671
03:00+1˚se81593100 0.0 1019612
06:00+1˚se81594100 0.0 1019556
09:00+2˚se71494100 0.0 1020510
12:00+2˚se71395100 0.0 1020435
15:00+3˚se61495100 0.0 1020516
18:00+3˚se71494100 0.0 1020506
21:00+3˚se71494100 0.0 1021558
6 december, sun
sun600:00+3˚se71493100 0.0 1021519
03:00+3˚se7139298 0.0 1022522
06:00+3˚se8149095 0.0 1021526
09:00+2˚se8148993 0.0 1022642
12:00+2˚se8158699 0.0 1022576
15:00+2˚se8148264 0.0 1021552
18:00+1˚se816840 0.0 1021554
21:00se8168611 0.0 1022595